Overview Statistics Trail Chart Weather Telemetry Raw packets
 

This is the latest recevied weather packets stored in our database for station/object HP1COO-13. If no packets are shown the sender has not sent any weather packets the latest 10 day(s).

<< 22 23 24 25 26 27 28 >>
Time Temp. Humidity Pressure Rain* Wind** Luminosity Snow
1788295033 32.22° C 71% 1007.8 hPa 0 mm - - -
1788294400 32.22° C 70% 1007.4 hPa 0 mm - - -
1788293767 32.78° C 68% 1007.5 hPa 0 mm - - -
1788293134 32.78° C 68% 1007.5 hPa 0 mm - - -
1788292501 32.22° C 68% 1007.6 hPa 0 mm - - -
1788291868 32.22° C 67% 1007.7 hPa 0 mm - - -
1788291235 31.67° C 76% 1008 hPa 0 mm - - -
1788290602 31.11° C 77% 1008.2 hPa 0 mm - - -
1788289969 31.11° C 78% 1008.3 hPa 0 mm - - -
1788289336 31.67° C 76% 1008.3 hPa 0 mm - - -
1788288703 31.67° C 70% 1008.4 hPa 0 mm - - -
1788288070 31.67° C 72% 1008.7 hPa 0 mm - - -
1788287437 31.11° C 74% 1008.8 hPa 0 mm - - -
1788286804 31.11° C 76% 1009.1 hPa 0 mm - - -
1788286171 31.11° C 77% 1009 hPa 0 mm - - -
1788285538 31.67° C 76% 1009.3 hPa 0 mm - - -
1788284905 32.22° C 70% 1009.5 hPa 0 mm - - -
1788284272 31.67° C 73% 1009.5 hPa 0 mm - - -
1788283639 31.67° C 75% 1010 hPa 0 mm - - -
1788283006 31.11° C 76% 1010.2 hPa 0 mm - - -
1788282373 30.56° C 80% 1010.4 hPa 0 mm - - -
1788281740 30.56° C 77% 1010.6 hPa 0 mm - - -
1788281107 30.56° C 77% 1010.6 hPa 0 mm - - -
1788280474 31.67° C 75% 1010.7 hPa 0 mm - - -
1788279842 30.56° C 78% 1010.9 hPa 0 mm - - -

* Rain latest hour (hover to see other rain measurements)
** Current wind speed in m/s (hover to see current wind gust speed)